Time,TemperatureF,DewpointF,PressureIn,WindDirection,WindDirectionDegrees,WindSpeedMPH,WindSpeedGustMPH,Humidity,HourlyPrecipIn,Conditions,Clouds,dailyrainin,SoftwareType,DateUTC
2013-03-03 00:00:00,55.5,51.1,30.09,WNW,293,0.0,-999.0,85,0.00,,,0.00,Wunderground v.1.15,2013-03-03 08:00:00,
2013-03-03 00:05:00,55.5,51.1,30.09,WNW,293,0.0,-999.0,85,0.00,,,0.00,Wunderground v.1.15,2013-03-03 08:05:00,
2013-03-03 00:10:00,55.5,51.1,30.09,WNW,293,0.0,-999.0,85,0.00,,,0.00,Wunderground v.1.15,2013-03-03 08:10:00,
2013-03-03 00:15:00,56.0,51.9,30.09,WNW,293,0.0,-999.0,86,0.00,,,0.00,Wunderground v.1.15,2013-03-03 08:15:00,
2013-03-03 00:20:00,56.0,51.9,30.09,WNW,293,0.0,-999.0,86,0.00,,,0.00,Wunderground v.1.15,2013-03-03 08:20:00,
2013-03-03 00:25:00,56.1,52.0,30.09,N/A,-737280,0.0,-999.0,86,0.00,,,0.00,Wunderground v.1.15,2013-03-03 08:25:00,
2013-03-03 00:30:00,56.1,52.0,30.09,N/A,-737280,0.0,-999.0,86,0.00,,,0.00,Wunderground v.1.15,2013-03-03 08:30:00,
2013-03-03 00:35:00,56.0,51.9,30.08,N/A,-737280,0.0,-999.0,86,0.00,,,0.00,Wunderground v.1.15,2013-03-03 08:35:00,
2013-03-03 00:40:00,56.0,51.9,30.08,N/A,-737280,0.0,-999.0,86,0.00,,,0.00,Wunderground v.1.15,2013-03-03 08:40:00,
2013-03-03 00:45:00,55.9,51.8,30.08,N/A,-737280,0.0,-999.0,86,0.00,,,0.00,Wunderground v.1.15,2013-03-03 08:45:00,
2013-03-03 00:50:00,55.9,51.8,30.08,N/A,-737280,0.0,-999.0,86,0.00,,,0.00,Wunderground v.1.15,2013-03-03 08:50:00,
2013-03-03 00:55:00,55.1,51.0,30.09,N/A,-737280,0.0,-999.0,86,0.00,,,0.00,Wunderground v.1.15,2013-03-03 08:55:00,
2013-03-03 01:00:00,55.1,51.0,30.09,N/A,-737280,0.0,-999.0,86,0.00,,,0.00,Wunderground v.1.15,2013-03-03 09:00:00,
2013-03-03 01:05:00,54.2,50.1,30.09,N/A,-737280,0.0,-999.0,86,0.00,,,0.00,Wunderground v.1.15,2013-03-03 09:05:00,
2013-03-03 01:10:00,54.2,50.1,30.09,N/A,-737280,0.0,-999.0,86,0.00,,,0.00,Wunderground v.1.15,2013-03-03 09:10:00,
2013-03-03 01:15:00,53.5,49.4,30.09,N/A,-737280,0.0,-999.0,86,0.00,,,0.00,Wunderground v.1.15,2013-03-03 09:15:00,
2013-03-03 01:20:00,53.5,49.4,30.09,N/A,-737280,0.0,-999.0,86,0.00,,,0.00,Wunderground v.1.15,2013-03-03 09:20:00,
2013-03-03 01:25:00,53.0,48.9,30.09,N/A,-737280,0.0,-999.0,86,0.00,,,0.00,Wunderground v.1.15,2013-03-03 09:25:00,
2013-03-03 01:30:00,53.0,48.9,30.09,N/A,-737280,0.0,-999.0,86,0.00,,,0.00,Wunderground v.1.15,2013-03-03 09:30:00,
2013-03-03 01:35:00,52.9,49.1,30.08,N/A,-737280,0.0,-999.0,87,0.00,,,0.00,Wunderground v.1.15,2013-03-03 09:35:00,
2013-03-03 01:40:00,52.9,49.1,30.08,N/A,-737280,0.0,-999.0,87,0.00,,,0.00,Wunderground v.1.15,2013-03-03 09:40:00,
2013-03-03 01:45:00,52.8,49.0,30.08,N/A,-737280,0.0,-999.0,87,0.00,,,0.00,Wunderground v.1.15,2013-03-03 09:45:00,
2013-03-03 01:50:00,52.8,49.0,30.08,N/A,-737280,0.0,-999.0,87,0.00,,,0.00,Wunderground v.1.15,2013-03-03 09:50:00,
2013-03-03 01:55:00,53.3,49.8,30.07,WNW,293,0.0,-999.0,88,0.00,,,0.00,Wunderground v.1.15,2013-03-03 09:55:00,
2013-03-03 02:00:00,53.3,49.8,30.07,WNW,293,0.0,-999.0,88,0.00,,,0.00,Wunderground v.1.15,2013-03-03 10:00:00,
2013-03-03 02:05:00,53.5,50.0,30.08,N/A,-737280,0.0,-999.0,88,0.00,,,0.00,Wunderground v.1.15,2013-03-03 10:05:00,
2013-03-03 02:10:00,53.5,50.0,30.08,N/A,-737280,0.0,-999.0,88,0.00,,,0.00,Wunderground v.1.15,2013-03-03 10:10:00,
2013-03-03 02:15:00,53.8,50.3,30.08,WNW,293,0.0,-999.0,88,0.00,,,0.00,Wunderground v.1.15,2013-03-03 10:15:00,
2013-03-03 02:20:00,53.8,50.3,30.08,WNW,293,0.0,-999.0,88,0.00,,,0.00,Wunderground v.1.15,2013-03-03 10:20:00,
2013-03-03 02:25:00,54.4,50.9,30.09,WNW,293,1.0,-999.0,88,0.00,,,0.00,Wunderground v.1.15,2013-03-03 10:25:00,
2013-03-03 02:30:00,54.4,50.9,30.09,WNW,293,1.0,-999.0,88,0.00,,,0.00,Wunderground v.1.15,2013-03-03 10:30:00,
2013-03-03 02:35:00,55.0,51.5,30.08,WSW,248,1.0,-999.0,88,0.00,,,0.00,Wunderground v.1.15,2013-03-03 10:35:00,
2013-03-03 02:40:00,55.0,51.5,30.08,WSW,248,1.0,-999.0,88,0.00,,,0.00,Wunderground v.1.15,2013-03-03 10:40:00,
2013-03-03 02:45:00,55.3,51.8,30.07,ENE,68,1.0,-999.0,88,0.00,,,0.00,Wunderground v.1.15,2013-03-03 10:45:00,
2013-03-03 02:50:00,55.3,51.8,30.07,ENE,68,1.0,-999.0,88,0.00,,,0.00,Wunderground v.1.15,2013-03-03 10:50:00,
2013-03-03 02:55:00,55.3,51.8,30.03,NE,45,1.0,-999.0,88,0.00,,,0.00,Wunderground v.1.15,2013-03-03 10:55:00,
2013-03-03 03:00:00,55.3,51.8,30.03,NE,45,1.0,-999.0,88,0.00,,,0.00,Wunderground v.1.15,2013-03-03 11:00:00,
2013-03-03 03:05:00,55.5,52.0,30.00,ENE,68,2.0,-999.0,88,0.00,,,0.00,Wunderground v.1.15,2013-03-03 11:05:00,
2013-03-03 03:10:00,55.5,52.0,30.00,ENE,68,2.0,-999.0,88,0.00,,,0.00,Wunderground v.1.15,2013-03-03 11:10:00,
2013-03-03 03:15:00,55.7,52.2,30.00,ENE,68,2.0,-999.0,88,0.00,,,0.00,Wunderground v.1.15,2013-03-03 11:15:00,
2013-03-03 03:20:00,55.7,52.2,30.00,ENE,68,2.0,-999.0,88,0.00,,,0.00,Wunderground v.1.15,2013-03-03 11:20:00,
2013-03-03 03:25:00,55.9,52.4,30.00,NE,45,1.0,-999.0,88,0.00,,,0.00,Wunderground v.1.15,2013-03-03 11:25:00,
2013-03-03 03:30:00,55.9,52.4,30.00,NE,45,1.0,-999.0,88,0.00,,,0.00,Wunderground v.1.15,2013-03-03 11:30:00,
2013-03-03 03:35:00,55.9,52.4,30.01,NE,45,0.0,-999.0,88,0.00,,,0.00,Wunderground v.1.15,2013-03-03 11:35:00,
2013-03-03 03:40:00,55.9,52.4,30.01,NE,45,0.0,-999.0,88,0.00,,,0.00,Wunderground v.1.15,2013-03-03 11:40:00,
2013-03-03 03:45:00,55.9,52.4,30.01,NE,45,0.0,-999.0,88,0.00,,,0.00,Wunderground v.1.15,2013-03-03 11:45:00,
2013-03-03 03:50:00,55.9,52.4,30.01,NE,45,0.0,-999.0,88,0.00,,,0.00,Wunderground v.1.15,2013-03-03 11:50:00,
2013-03-03 03:55:00,55.8,52.3,30.01,NE,45,0.0,-999.0,88,0.00,,,0.00,Wunderground v.1.15,2013-03-03 11:55:00,
2013-03-03 04:00:00,55.8,52.3,30.01,NE,45,0.0,-999.0,88,0.00,,,0.00,Wunderground v.1.15,2013-03-03 12:00:00,
2013-03-03 04:05:00,55.6,52.1,30.02,NE,45,0.0,-999.0,88,0.00,,,0.00,Wunderground v.1.15,2013-03-03 12:05:00,
2013-03-03 04:10:00,55.6,52.1,30.02,NE,45,0.0,-999.0,88,0.00,,,0.00,Wunderground v.1.15,2013-03-03 12:10:00,
2013-03-03 04:15:00,55.4,51.6,30.03,SSE,158,0.0,-999.0,87,0.00,,,0.00,Wunderground v.1.15,2013-03-03 12:15:00,
2013-03-03 04:20:00,55.4,51.6,30.03,SSE,158,0.0,-999.0,87,0.00,,,0.00,Wunderground v.1.15,2013-03-03 12:20:00,
2013-03-03 04:25:00,55.6,52.1,30.04,SW,225,1.0,-999.0,88,0.00,,,0.00,Wunderground v.1.15,2013-03-03 12:25:00,
2013-03-03 04:35:00,55.9,52.1,30.04,SW,225,1.0,-999.0,87,0.00,,,0.00,Wunderground v.1.15,2013-03-03 12:35:00,
2013-03-03 04:40:00,55.9,52.1,30.04,SW,225,1.0,-999.0,87,0.00,,,0.00,Wunderground v.1.15,2013-03-03 12:40:00,
2013-03-03 04:45:00,55.9,52.1,30.04,SSW,203,1.0,-999.0,87,0.00,,,0.00,Wunderground v.1.15,2013-03-03 12:45:00,
2013-03-03 04:50:00,55.9,52.1,30.04,SSW,203,1.0,-999.0,87,0.00,,,0.00,Wunderground v.1.15,2013-03-03 12:50:00,
2013-03-03 04:55:00,55.8,52.0,30.04,SSW,203,0.0,-999.0,87,0.00,,,0.00,Wunderground v.1.15,2013-03-03 12:55:00,
2013-03-03 05:00:00,55.8,52.0,30.04,SSW,203,0.0,-999.0,87,0.00,,,0.00,Wunderground v.1.15,2013-03-03 13:00:00,
2013-03-03 05:05:00,55.7,52.2,30.04,SSW,203,0.0,-999.0,88,0.00,,,0.00,Wunderground v.1.15,2013-03-03 13:05:00,
2013-03-03 05:10:00,55.7,52.2,30.04,SSW,203,0.0,-999.0,88,0.00,,,0.00,Wunderground v.1.15,2013-03-03 13:10:00,
2013-03-03 05:15:00,55.7,52.2,30.04,SSW,203,0.0,-999.0,88,0.00,,,0.00,Wunderground v.1.15,2013-03-03 13:15:00,
2013-03-03 05:20:00,55.7,52.2,30.04,SSW,203,0.0,-999.0,88,0.00,,,0.00,Wunderground v.1.15,2013-03-03 13:20:00,
2013-03-03 05:25:00,55.7,52.2,30.05,SSW,203,0.0,-999.0,88,0.00,,,0.00,Wunderground v.1.15,2013-03-03 13:25:00,
2013-03-03 05:30:00,55.7,52.2,30.05,SSW,203,0.0,-999.0,88,0.00,,,0.00,Wunderground v.1.15,2013-03-03 13:30:00,
2013-03-03 05:35:00,55.7,52.2,30.06,SSW,203,0.0,-999.0,88,0.00,,,0.00,Wunderground v.1.15,2013-03-03 13:35:00,
2013-03-03 05:40:00,55.7,52.2,30.06,SSW,203,0.0,-999.0,88,0.00,,,0.00,Wunderground v.1.15,2013-03-03 13:40:00,
2013-03-03 05:45:00,55.5,52.0,30.06,SSW,203,0.0,-999.0,88,0.00,,,0.00,Wunderground v.1.15,2013-03-03 13:45:00,
2013-03-03 05:50:00,55.5,52.0,30.06,SSW,203,0.0,-999.0,88,0.00,,,0.00,Wunderground v.1.15,2013-03-03 13:50:00,
2013-03-03 05:55:00,55.4,51.9,30.06,SSW,203,0.0,-999.0,88,0.00,,,0.00,Wunderground v.1.15,2013-03-03 13:55:00,
2013-03-03 06:00:00,55.4,51.9,30.06,SSW,203,0.0,-999.0,88,0.00,,,0.00,Wunderground v.1.15,2013-03-03 14:00:00,
2013-03-03 06:05:00,55.1,51.6,30.06,West,270,0.0,-999.0,88,0.00,,,0.00,Wunderground v.1.15,2013-03-03 14:05:00,
2013-03-03 06:10:00,55.1,51.6,30.06,West,270,0.0,-999.0,88,0.00,,,0.00,Wunderground v.1.15,2013-03-03 14:10:00,
2013-03-03 06:15:00,55.0,51.5,30.06,NNE,23,0.0,-999.0,88,0.00,,,0.00,Wunderground v.1.15,2013-03-03 14:15:00,
2013-03-03 06:20:00,55.0,51.5,30.06,NNE,23,0.0,-999.0,88,0.00,,,0.00,Wunderground v.1.15,2013-03-03 14:20:00,
2013-03-03 06:25:00,55.1,51.6,30.07,NNE,23,0.0,-999.0,88,0.00,,,0.00,Wunderground v.1.15,2013-03-03 14:25:00,
2013-03-03 06:30:00,55.1,51.6,30.07,NNE,23,0.0,-999.0,88,0.00,,,0.00,Wunderground v.1.15,2013-03-03 14:30:00,
2013-03-03 06:35:00,55.3,51.8,30.06,NNE,23,0.0,-999.0,88,0.00,,,0.00,Wunderground v.1.15,2013-03-03 14:35:00,
2013-03-03 06:40:00,55.3,51.8,30.06,NNE,23,0.0,-999.0,88,0.00,,,0.00,Wunderground v.1.15,2013-03-03 14:40:00,
2013-03-03 06:45:00,55.5,52.0,30.06,NNE,23,0.0,-999.0,88,0.00,,,0.00,Wunderground v.1.15,2013-03-03 14:45:00,
2013-03-03 06:50:00,55.5,52.0,30.06,NNE,23,0.0,-999.0,88,0.00,,,0.00,Wunderground v.1.15,2013-03-03 14:50:00,
2013-03-03 06:55:00,55.6,52.1,30.06,NNE,23,0.0,-999.0,88,0.00,,,0.00,Wunderground v.1.15,2013-03-03 14:55:00,
2013-03-03 07:00:00,55.6,52.1,30.06,NNE,23,0.0,-999.0,88,0.00,,,0.00,Wunderground v.1.15,2013-03-03 15:00:00,
2013-03-03 07:05:00,55.8,52.3,30.07,East,90,0.0,-999.0,88,0.00,,,0.00,Wunderground v.1.15,2013-03-03 15:05:00,
2013-03-03 07:10:00,55.8,52.3,30.07,East,90,0.0,-999.0,88,0.00,,,0.00,Wunderground v.1.15,2013-03-03 15:10:00,
2013-03-03 07:15:00,56.0,52.2,30.06,East,90,0.0,-999.0,87,0.00,,,0.00,Wunderground v.1.15,2013-03-03 15:15:00,
2013-03-03 07:20:00,56.0,52.2,30.06,East,90,0.0,-999.0,87,0.00,,,0.00,Wunderground v.1.15,2013-03-03 15:20:00,
2013-03-03 07:25:00,56.3,52.5,30.07,East,90,0.0,-999.0,87,0.00,,,0.00,Wunderground v.1.15,2013-03-03 15:25:00,
2013-03-03 07:35:00,56.6,52.8,30.07,East,90,0.0,-999.0,87,0.00,,,0.00,Wunderground v.1.15,2013-03-03 15:35:00,
2013-03-03 07:40:00,56.6,52.8,30.07,East,90,0.0,-999.0,87,0.00,,,0.00,Wunderground v.1.15,2013-03-03 15:40:00,
2013-03-03 07:45:00,56.9,53.1,30.08,N/A,-737280,0.0,-999.0,87,0.00,,,0.00,Wunderground v.1.15,2013-03-03 15:45:00,
2013-03-03 07:50:00,56.9,53.1,30.08,N/A,-737280,0.0,-999.0,87,0.00,,,0.00,Wunderground v.1.15,2013-03-03 15:50:00,
2013-03-03 08:00:00,57.3,53.5,30.08,N/A,-737280,0.0,-999.0,87,0.00,,,0.00,Wunderground v.1.15,2013-03-03 16:00:00,
2013-03-03 08:05:00,58.0,54.2,30.07,East,90,0.0,-999.0,87,0.00,,,0.00,Wunderground v.1.15,2013-03-03 16:05:00,
2013-03-03 08:10:00,58.0,54.2,30.07,East,90,0.0,-999.0,87,0.00,,,0.00,Wunderground v.1.15,2013-03-03 16:10:00,
2013-03-03 08:15:00,58.5,54.3,30.07,East,90,0.0,-999.0,86,0.00,,,0.00,Wunderground v.1.15,2013-03-03 16:15:00,
2013-03-03 08:20:00,58.5,54.3,30.07,East,90,0.0,-999.0,86,0.00,,,0.00,Wunderground v.1.15,2013-03-03 16:20:00,
2013-03-03 08:25:00,59.1,54.6,30.07,East,90,0.0,-999.0,85,0.00,,,0.00,Wunderground v.1.15,2013-03-03 16:25:00,
2013-03-03 08:30:00,59.1,54.6,30.07,East,90,0.0,-999.0,85,0.00,,,0.00,Wunderground v.1.15,2013-03-03 16:30:00,
2013-03-03 08:35:00,59.1,53.9,30.06,SE,135,0.0,-999.0,83,0.00,,,0.00,Wunderground v.1.15,2013-03-03 16:35:00,
2013-03-03 08:40:00,59.1,53.9,30.06,SE,135,0.0,-999.0,83,0.00,,,0.00,Wunderground v.1.15,2013-03-03 16:40:00,
2013-03-03 08:45:00,59.5,54.3,30.08,WSW,248,1.0,-999.0,83,0.00,,,0.00,Wunderground v.1.15,2013-03-03 16:45:00,
2013-03-03 08:50:00,59.5,54.3,30.08,WSW,248,1.0,-999.0,83,0.00,,,0.00,Wunderground v.1.15,2013-03-03 16:50:00,
2013-03-03 08:55:00,59.7,54.2,30.07,West,270,2.0,-999.0,82,0.00,,,0.00,Wunderground v.1.15,2013-03-03 16:55:00,
2013-03-03 09:00:00,59.7,54.2,30.07,West,270,2.0,-999.0,82,0.00,,,0.00,Wunderground v.1.15,2013-03-03 17:00:00,
2013-03-03 09:05:00,60.1,53.9,30.07,West,270,1.0,-999.0,80,0.00,,,0.00,Wunderground v.1.15,2013-03-03 17:05:00,
2013-03-03 09:10:00,60.1,53.9,30.07,West,270,1.0,-999.0,80,0.00,,,0.00,Wunderground v.1.15,2013-03-03 17:10:00,
2013-03-03 09:15:00,60.5,54.3,30.08,West,270,1.0,-999.0,80,0.00,,,0.00,Wunderground v.1.15,2013-03-03 17:15:00,
2013-03-03 09:20:00,60.5,54.3,30.08,West,270,1.0,-999.0,80,0.00,,,0.00,Wunderground v.1.15,2013-03-03 17:20:00,
2013-03-03 09:25:00,60.7,53.8,30.08,West,270,1.0,-999.0,78,0.00,,,0.00,Wunderground v.1.15,2013-03-03 17:25:00,
2013-03-03 09:30:00,60.7,53.8,30.08,West,270,1.0,-999.0,78,0.00,,,0.00,Wunderground v.1.15,2013-03-03 17:30:00,
2013-03-03 09:35:00,61.1,54.5,30.08,SW,225,2.0,-999.0,79,0.00,,,0.00,Wunderground v.1.15,2013-03-03 17:35:00,
2013-03-03 09:45:00,61.6,55.0,30.08,WSW,248,2.0,-999.0,79,0.00,,,0.00,Wunderground v.1.15,2013-03-03 17:45:00,
2013-03-03 09:50:00,61.6,55.0,30.08,WSW,248,2.0,-999.0,79,0.00,,,0.00,Wunderground v.1.15,2013-03-03 17:50:00,
2013-03-03 09:55:00,62.2,55.3,30.08,South,180,1.0,-999.0,78,0.00,,,0.00,Wunderground v.1.15,2013-03-03 17:55:00,
2013-03-03 10:00:00,62.2,55.3,30.08,South,180,1.0,-999.0,78,0.00,,,0.00,Wunderground v.1.15,2013-03-03 18:00:00,
2013-03-03 10:05:00,62.0,54.7,30.08,SSW,203,2.0,-999.0,77,0.00,,,0.00,Wunderground v.1.15,2013-03-03 18:05:00,
2013-03-03 10:10:00,62.0,54.7,30.08,SSW,203,2.0,-999.0,77,0.00,,,0.00,Wunderground v.1.15,2013-03-03 18:10:00,
2013-03-03 10:15:00,61.5,54.6,30.07,SSW,203,3.0,-999.0,78,0.00,,,0.00,Wunderground v.1.15,2013-03-03 18:15:00,
2013-03-03 10:20:00,61.5,54.6,30.07,SSW,203,3.0,-999.0,78,0.00,,,0.00,Wunderground v.1.15,2013-03-03 18:20:00,
2013-03-03 10:25:00,61.4,54.8,30.07,South,180,2.0,-999.0,79,0.00,,,0.00,Wunderground v.1.15,2013-03-03 18:25:00,
2013-03-03 10:30:00,61.4,54.8,30.07,South,180,2.0,-999.0,79,0.00,,,0.00,Wunderground v.1.15,2013-03-03 18:30:00,
2013-03-03 10:35:00,61.1,54.9,30.07,SSW,203,2.0,-999.0,80,0.00,,,0.00,Wunderground v.1.15,2013-03-03 18:35:00,
2013-03-03 10:40:00,61.1,54.9,30.07,SSW,203,2.0,-999.0,80,0.00,,,0.00,Wunderground v.1.15,2013-03-03 18:40:00,
2013-03-03 10:45:00,60.9,55.0,30.06,South,180,2.0,-999.0,81,0.00,,,0.00,Wunderground v.1.15,2013-03-03 18:45:00,
2013-03-03 10:50:00,60.9,55.0,30.06,South,180,2.0,-999.0,81,0.00,,,0.00,Wunderground v.1.15,2013-03-03 18:50:00,
2013-03-03 10:55:00,60.9,55.0,30.07,South,180,2.0,-999.0,81,0.00,,,0.00,Wunderground v.1.15,2013-03-03 18:55:00,
2013-03-03 11:00:00,60.9,55.0,30.07,South,180,2.0,-999.0,81,0.00,,,0.00,Wunderground v.1.15,2013-03-03 19:00:00,
2013-03-03 11:05:00,61.0,55.1,30.06,South,180,2.0,-999.0,81,0.00,,,0.00,Wunderground v.1.15,2013-03-03 19:05:00,
2013-03-03 11:10:00,61.0,55.1,30.06,South,180,2.0,-999.0,81,0.00,,,0.00,Wunderground v.1.15,2013-03-03 19:10:00,
2013-03-03 11:15:00,61.1,55.2,30.06,SSW,203,1.0,-999.0,81,0.00,,,0.00,Wunderground v.1.15,2013-03-03 19:15:00,
2013-03-03 11:20:00,61.1,55.2,30.06,SSW,203,1.0,-999.0,81,0.00,,,0.00,Wunderground v.1.15,2013-03-03 19:20:00,
2013-03-03 11:25:00,61.0,55.1,30.06,SSW,203,2.0,-999.0,81,0.00,,,0.00,Wunderground v.1.15,2013-03-03 19:25:00,
2013-03-03 11:30:00,61.0,55.1,30.06,SSW,203,2.0,-999.0,81,0.00,,,0.00,Wunderground v.1.15,2013-03-03 19:30:00,
2013-03-03 11:35:00,61.3,55.4,30.05,SW,225,1.0,-999.0,81,0.00,,,0.00,Wunderground v.1.15,2013-03-03 19:35:00,
2013-03-03 11:40:00,61.3,55.4,30.05,SW,225,1.0,-999.0,81,0.00,,,0.00,Wunderground v.1.15,2013-03-03 19:40:00,
2013-03-03 11:45:00,61.4,55.2,30.05,SW,225,2.0,-999.0,80,0.00,,,0.00,Wunderground v.1.15,2013-03-03 19:45:00,
2013-03-03 11:50:00,61.4,55.2,30.05,SW,225,2.0,-999.0,80,0.00,,,0.00,Wunderground v.1.15,2013-03-03 19:50:00,
2013-03-03 11:55:00,61.4,54.8,30.04,South,180,2.0,-999.0,79,0.00,,,0.00,Wunderground v.1.15,2013-03-03 19:55:00,
2013-03-03 12:00:00,61.4,54.8,30.04,South,180,2.0,-999.0,79,0.00,,,0.00,Wunderground v.1.15,2013-03-03 20:00:00,
2013-03-03 12:05:00,62.0,55.1,30.04,SW,225,2.0,-999.0,78,0.00,,,0.00,Wunderground v.1.15,2013-03-03 20:05:00,
2013-03-03 12:10:00,62.0,55.1,30.04,SW,225,2.0,-999.0,78,0.00,,,0.00,Wunderground v.1.15,2013-03-03 20:10:00,
2013-03-03 12:15:00,62.5,55.5,30.03,SW,225,3.0,-999.0,78,0.00,,,0.00,Wunderground v.1.15,2013-03-03 20:15:00,
2013-03-03 12:20:00,62.5,55.5,30.03,SW,225,3.0,-999.0,78,0.00,,,0.00,Wunderground v.1.15,2013-03-03 20:20:00,
2013-03-03 12:25:00,63.3,55.6,30.03,SW,225,3.0,-999.0,76,0.00,,,0.00,Wunderground v.1.15,2013-03-03 20:25:00,
2013-03-03 12:30:00,63.3,55.6,30.03,SW,225,3.0,-999.0,76,0.00,,,0.00,Wunderground v.1.15,2013-03-03 20:30:00,
2013-03-03 12:35:00,64.0,55.5,30.02,WSW,248,2.0,-999.0,74,0.00,,,0.00,Wunderground v.1.15,2013-03-03 20:35:00,
2013-03-03 12:40:00,64.0,55.5,30.02,WSW,248,2.0,-999.0,74,0.00,,,0.00,Wunderground v.1.15,2013-03-03 20:40:00,
2013-03-03 12:45:00,64.6,54.6,30.02,SW,225,3.0,-999.0,70,0.00,,,0.00,Wunderground v.1.15,2013-03-03 20:45:00,
2013-03-03 12:50:00,64.6,54.6,30.02,SW,225,3.0,-999.0,70,0.00,,,0.00,Wunderground v.1.15,2013-03-03 20:50:00,
2013-03-03 12:55:00,64.4,55.2,30.01,SW,225,3.0,-999.0,72,0.00,,,0.00,Wunderground v.1.15,2013-03-03 20:55:00,
2013-03-03 13:00:00,64.4,55.2,30.01,SW,225,3.0,-999.0,72,0.00,,,0.00,Wunderground v.1.15,2013-03-03 21:00:00,
2013-03-03 13:05:00,64.1,54.9,30.01,SW,225,4.0,-999.0,72,0.00,,,0.00,Wunderground v.1.15,2013-03-03 21:05:00,
2013-03-03 13:10:00,64.1,54.9,30.01,SW,225,4.0,-999.0,72,0.00,,,0.00,Wunderground v.1.15,2013-03-03 21:10:00,
2013-03-03 13:15:00,63.8,54.6,30.00,SW,225,4.0,-999.0,72,0.00,,,0.00,Wunderground v.1.15,2013-03-03 21:15:00,
2013-03-03 13:20:00,63.8,54.6,30.00,SW,225,4.0,-999.0,72,0.00,,,0.00,Wunderground v.1.15,2013-03-03 21:20:00,
2013-03-03 13:25:00,64.4,54.4,30.00,South,180,2.0,-999.0,70,0.00,,,0.00,Wunderground v.1.15,2013-03-03 21:25:00,
2013-03-03 13:30:00,64.4,54.4,30.00,South,180,2.0,-999.0,70,0.00,,,0.00,Wunderground v.1.15,2013-03-03 21:30:00,
2013-03-03 13:35:00,65.2,53.1,30.00,SW,225,3.0,-999.0,65,0.00,,,0.00,Wunderground v.1.15,2013-03-03 21:35:00,
2013-03-03 13:40:00,65.2,53.1,30.00,SW,225,3.0,-999.0,65,0.00,,,0.00,Wunderground v.1.15,2013-03-03 21:40:00,
2013-03-03 13:45:00,65.7,53.6,30.00,SW,225,3.0,-999.0,65,0.00,,,0.00,Wunderground v.1.15,2013-03-03 21:45:00,
2013-03-03 13:50:00,65.7,53.6,30.00,SW,225,3.0,-999.0,65,0.00,,,0.00,Wunderground v.1.15,2013-03-03 21:50:00,
2013-03-03 13:55:00,66.0,51.3,30.00,SW,225,4.0,-999.0,59,0.00,,,0.00,Wunderground v.1.15,2013-03-03 21:55:00,
2013-03-03 14:00:00,66.0,51.3,30.00,SW,225,4.0,-999.0,59,0.00,,,0.00,Wunderground v.1.15,2013-03-03 22:00:00,
2013-03-03 14:05:00,66.3,52.0,30.00,SSW,203,4.0,-999.0,60,0.00,,,0.00,Wunderground v.1.15,2013-03-03 22:05:00,
2013-03-03 14:10:00,66.3,52.0,30.00,SSW,203,4.0,-999.0,60,0.00,,,0.00,Wunderground v.1.15,2013-03-03 22:10:00,
2013-03-03 14:15:00,66.5,52.2,29.99,SW,225,4.0,-999.0,60,0.00,,,0.00,Wunderground v.1.15,2013-03-03 22:15:00,
2013-03-03 14:20:00,66.5,52.2,29.99,SW,225,4.0,-999.0,60,0.00,,,0.00,Wunderground v.1.15,2013-03-03 22:20:00,
2013-03-03 14:25:00,66.1,50.9,29.99,SW,225,6.0,-999.0,58,0.00,,,0.00,Wunderground v.1.15,2013-03-03 22:25:00,
2013-03-03 14:30:00,66.1,50.9,29.99,SW,225,6.0,-999.0,58,0.00,,,0.00,Wunderground v.1.15,2013-03-03 22:30:00,
2013-03-03 14:35:00,66.3,51.5,29.99,SW,225,5.0,-999.0,59,0.00,,,0.00,Wunderground v.1.15,2013-03-03 22:35:00,
2013-03-03 14:40:00,66.3,51.5,29.99,SW,225,5.0,-999.0,59,0.00,,,0.00,Wunderground v.1.15,2013-03-03 22:40:00,
2013-03-03 14:45:00,66.0,52.2,29.99,SW,225,6.0,-999.0,61,0.00,,,0.00,Wunderground v.1.15,2013-03-03 22:45:00,
2013-03-03 14:50:00,66.0,52.2,29.99,SW,225,6.0,-999.0,61,0.00,,,0.00,Wunderground v.1.15,2013-03-03 22:50:00,
2013-03-03 14:55:00,65.4,52.0,29.99,SW,225,7.0,-999.0,62,0.00,,,0.00,Wunderground v.1.15,2013-03-03 22:55:00,
2013-03-03 15:00:00,65.4,52.0,29.99,SW,225,7.0,-999.0,62,0.00,,,0.00,Wunderground v.1.15,2013-03-03 23:00:00,
2013-03-03 15:05:00,65.8,52.9,29.98,SW,225,5.0,-999.0,63,0.00,,,0.00,Wunderground v.1.15,2013-03-03 23:05:00,
2013-03-03 15:10:00,65.8,52.9,29.98,SW,225,5.0,-999.0,63,0.00,,,0.00,Wunderground v.1.15,2013-03-03 23:10:00,
2013-03-03 15:15:00,64.7,53.9,29.98,SW,225,7.0,-999.0,68,0.00,,,0.00,Wunderground v.1.15,2013-03-03 23:15:00,
2013-03-03 15:20:00,64.7,53.9,29.98,SW,225,7.0,-999.0,68,0.00,,,0.00,Wunderground v.1.15,2013-03-03 23:20:00,
2013-03-03 15:25:00,63.8,53.8,29.98,SW,225,7.0,-999.0,70,0.00,,,0.00,Wunderground v.1.15,2013-03-03 23:25:00,
2013-03-03 15:30:00,63.8,53.8,29.98,SW,225,7.0,-999.0,70,0.00,,,0.00,Wunderground v.1.15,2013-03-03 23:30:00,
2013-03-03 15:35:00,63.5,54.3,29.98,SW,225,6.0,-999.0,72,0.00,,,0.00,Wunderground v.1.15,2013-03-03 23:35:00,
2013-03-03 15:40:00,63.5,54.3,29.98,SW,225,6.0,-999.0,72,0.00,,,0.00,Wunderground v.1.15,2013-03-03 23:40:00,
2013-03-03 15:45:00,62.7,54.3,29.98,SW,225,6.0,-999.0,74,0.00,,,0.00,Wunderground v.1.15,2013-03-03 23:45:00,
2013-03-03 15:50:00,62.7,54.3,29.98,SW,225,6.0,-999.0,74,0.00,,,0.00,Wunderground v.1.15,2013-03-03 23:50:00,
2013-03-03 15:55:00,62.1,54.1,29.98,SW,225,6.0,-999.0,75,0.00,,,0.00,Wunderground v.1.15,2013-03-03 23:55:00,
2013-03-03 16:00:00,62.1,54.1,29.98,SW,225,6.0,-999.0,75,0.00,,,0.00,Wunderground v.1.15,2013-03-04 00:00:00,
2013-03-03 16:05:00,61.0,53.7,29.98,SW,225,6.0,-999.0,77,0.00,,,0.00,Wunderground v.1.15,2013-03-04 00:05:00,
2013-03-03 16:10:00,61.0,53.7,29.98,SW,225,6.0,-999.0,77,0.00,,,0.00,Wunderground v.1.15,2013-03-04 00:10:00,
2013-03-03 16:15:00,61.3,53.7,29.97,SW,225,4.0,-999.0,76,0.00,,,0.00,Wunderground v.1.15,2013-03-04 00:15:00,
2013-03-03 16:20:00,61.3,53.7,29.97,SW,225,4.0,-999.0,76,0.00,,,0.00,Wunderground v.1.15,2013-03-04 00:20:00,
2013-03-03 16:25:00,61.3,53.7,29.97,SW,225,3.0,-999.0,76,0.00,,,0.00,Wunderground v.1.15,2013-03-04 00:25:00,
2013-03-03 16:30:00,61.3,53.7,29.97,SW,225,3.0,-999.0,76,0.00,,,0.00,Wunderground v.1.15,2013-03-04 00:30:00,
2013-03-03 16:35:00,61.6,54.3,29.98,South,180,3.0,-999.0,77,0.00,,,0.00,Wunderground v.1.15,2013-03-04 00:35:00,
2013-03-03 16:40:00,61.6,54.3,29.98,South,180,3.0,-999.0,77,0.00,,,0.00,Wunderground v.1.15,2013-03-04 00:40:00,
2013-03-03 16:45:00,60.5,54.0,29.98,SSW,203,4.0,-999.0,79,0.00,,,0.00,Wunderground v.1.15,2013-03-04 00:45:00,
2013-03-03 16:50:00,60.5,54.0,29.98,SSW,203,4.0,-999.0,79,0.00,,,0.00,Wunderground v.1.15,2013-03-04 00:50:00,
2013-03-03 16:55:00,59.7,53.9,29.98,SW,225,4.0,-999.0,81,0.00,,,0.00,Wunderground v.1.15,2013-03-04 00:55:00,
2013-03-03 17:00:00,59.7,53.9,29.98,SW,225,4.0,-999.0,81,0.00,,,0.00,Wunderground v.1.15,2013-03-04 01:00:00,
2013-03-03 17:05:00,59.5,54.0,29.98,SW,225,3.0,-999.0,82,0.00,,,0.00,Wunderground v.1.15,2013-03-04 01:05:00,
2013-03-03 17:10:00,59.5,54.0,29.98,SW,225,3.0,-999.0,82,0.00,,,0.00,Wunderground v.1.15,2013-03-04 01:10:00,
2013-03-03 17:15:00,59.2,54.0,29.98,SSW,203,3.0,-999.0,83,0.00,,,0.00,Wunderground v.1.15,2013-03-04 01:15:00,
2013-03-03 17:20:00,59.2,54.0,29.98,SSW,203,3.0,-999.0,83,0.00,,,0.00,Wunderground v.1.15,2013-03-04 01:20:00,
2013-03-03 17:25:00,59.1,53.9,29.98,SSW,203,2.0,-999.0,83,0.00,,,0.00,Wunderground v.1.15,2013-03-04 01:25:00,
2013-03-03 17:30:00,59.1,53.9,29.98,SSW,203,2.0,-999.0,83,0.00,,,0.00,Wunderground v.1.15,2013-03-04 01:30:00,
2013-03-03 17:35:00,59.0,53.8,29.98,SSW,203,1.0,-999.0,83,0.00,,,0.00,Wunderground v.1.15,2013-03-04 01:35:00,
2013-03-03 17:40:00,59.0,53.8,29.98,SSW,203,1.0,-999.0,83,0.00,,,0.00,Wunderground v.1.15,2013-03-04 01:40:00,
2013-03-03 17:45:00,59.1,53.6,29.98,SSW,203,1.0,-999.0,82,0.00,,,0.00,Wunderground v.1.15,2013-03-04 01:45:00,
2013-03-03 17:50:00,59.1,53.6,29.98,SSW,203,1.0,-999.0,82,0.00,,,0.00,Wunderground v.1.15,2013-03-04 01:50:00,
2013-03-03 17:55:00,59.2,53.7,29.98,SSW,203,0.0,-999.0,82,0.00,,,0.00,Wunderground v.1.15,2013-03-04 01:55:00,
2013-03-03 18:00:00,59.2,53.7,29.98,SSW,203,0.0,-999.0,82,0.00,,,0.00,Wunderground v.1.15,2013-03-04 02:00:00,
2013-03-03 18:05:00,59.3,53.8,29.98,SSW,203,0.0,-999.0,82,0.00,,,0.00,Wunderground v.1.15,2013-03-04 02:05:00,
2013-03-03 18:10:00,59.3,53.8,29.98,SSW,203,0.0,-999.0,82,0.00,,,0.00,Wunderground v.1.15,2013-03-04 02:10:00,
2013-03-03 18:15:00,59.3,53.1,29.98,WNW,293,1.0,-999.0,80,0.00,,,0.00,Wunderground v.1.15,2013-03-04 02:15:00,
2013-03-03 18:20:00,59.3,53.1,29.98,WNW,293,1.0,-999.0,80,0.00,,,0.00,Wunderground v.1.15,2013-03-04 02:20:00,
2013-03-03 18:25:00,59.3,53.1,29.98,WNW,293,1.0,-999.0,80,0.00,,,0.00,Wunderground v.1.15,2013-03-04 02:25:00,
2013-03-03 18:30:00,59.3,53.1,29.98,WNW,293,1.0,-999.0,80,0.00,,,0.00,Wunderground v.1.15,2013-03-04 02:30:00,
2013-03-03 18:35:00,59.1,52.9,29.99,WNW,293,0.0,-999.0,80,0.00,,,0.00,Wunderground v.1.15,2013-03-04 02:35:00,
2013-03-03 18:40:00,59.1,52.9,29.99,WNW,293,0.0,-999.0,80,0.00,,,0.00,Wunderground v.1.15,2013-03-04 02:40:00,
2013-03-03 18:45:00,58.7,52.5,29.99,WNW,293,0.0,-999.0,80,0.00,,,0.00,Wunderground v.1.15,2013-03-04 02:45:00,
2013-03-03 18:50:00,58.7,52.5,29.99,WNW,293,0.0,-999.0,80,0.00,,,0.00,Wunderground v.1.15,2013-03-04 02:50:00,
2013-03-03 18:55:00,58.7,52.9,29.99,WNW,293,0.0,-999.0,81,0.00,,,0.00,Wunderground v.1.15,2013-03-04 02:55:00,
2013-03-03 19:00:00,58.7,52.9,29.99,WNW,293,0.0,-999.0,81,0.00,,,0.00,Wunderground v.1.15,2013-03-04 03:00:00,
2013-03-03 19:05:00,58.4,52.9,30.00,WNW,293,0.0,-999.0,82,0.00,,,0.00,Wunderground v.1.15,2013-03-04 03:05:00,
2013-03-03 19:10:00,58.4,52.9,30.00,WNW,293,0.0,-999.0,82,0.00,,,0.00,Wunderground v.1.15,2013-03-04 03:10:00,
2013-03-03 19:15:00,58.0,52.9,30.00,N/A,-737280,0.0,-999.0,83,0.00,,,0.00,Wunderground v.1.15,2013-03-04 03:15:00,
2013-03-03 19:20:00,58.0,52.9,30.00,N/A,-737280,0.0,-999.0,83,0.00,,,0.00,Wunderground v.1.15,2013-03-04 03:20:00,
2013-03-03 19:25:00,57.7,52.6,30.00,N/A,-737280,0.0,-999.0,83,0.00,,,0.00,Wunderground v.1.15,2013-03-04 03:25:00,
2013-03-03 19:30:00,57.7,52.6,30.00,N/A,-737280,0.0,-999.0,83,0.00,,,0.00,Wunderground v.1.15,2013-03-04 03:30:00,
2013-03-03 19:35:00,57.4,52.6,30.00,WNW,293,0.0,-999.0,84,0.00,,,0.00,Wunderground v.1.15,2013-03-04 03:35:00,
2013-03-03 19:40:00,57.4,52.6,30.00,WNW,293,0.0,-999.0,84,0.00,,,0.00,Wunderground v.1.15,2013-03-04 03:40:00,
2013-03-03 19:45:00,57.2,52.4,30.01,WNW,293,0.0,-999.0,84,0.00,,,0.00,Wunderground v.1.15,2013-03-04 03:45:00,
2013-03-03 19:50:00,57.2,52.4,30.01,WNW,293,0.0,-999.0,84,0.00,,,0.00,Wunderground v.1.15,2013-03-04 03:50:00,
2013-03-03 19:55:00,57.0,52.2,30.01,N/A,-737280,0.0,-999.0,84,0.00,,,0.00,Wunderground v.1.15,2013-03-04 03:55:00,
2013-03-03 20:00:00,57.0,52.2,30.01,N/A,-737280,0.0,-999.0,84,0.00,,,0.00,Wunderground v.1.15,2013-03-04 04:00:00,
2013-03-03 20:05:00,56.4,51.6,30.01,N/A,-737280,0.0,-999.0,84,0.00,,,0.00,Wunderground v.1.15,2013-03-04 04:05:00,
2013-03-03 20:10:00,56.4,51.6,30.01,N/A,-737280,0.0,-999.0,84,0.00,,,0.00,Wunderground v.1.15,2013-03-04 04:10:00,
2013-03-03 20:15:00,56.3,51.8,30.01,N/A,-737280,0.0,-999.0,85,0.00,,,0.00,Wunderground v.1.15,2013-03-04 04:15:00,
2013-03-03 20:20:00,56.3,51.8,30.01,N/A,-737280,0.0,-999.0,85,0.00,,,0.00,Wunderground v.1.15,2013-03-04 04:20:00,
2013-03-03 20:25:00,56.0,51.6,30.01,N/A,-737280,0.0,-999.0,85,0.00,,,0.00,Wunderground v.1.15,2013-03-04 04:25:00,
2013-03-03 20:30:00,56.0,51.6,30.01,N/A,-737280,0.0,-999.0,85,0.00,,,0.00,Wunderground v.1.15,2013-03-04 04:30:00,
2013-03-03 20:35:00,55.7,51.6,30.01,N/A,-737280,0.0,-999.0,86,0.00,,,0.00,Wunderground v.1.15,2013-03-04 04:35:00,
2013-03-03 20:40:00,55.7,51.6,30.01,N/A,-737280,0.0,-999.0,86,0.00,,,0.00,Wunderground v.1.15,2013-03-04 04:40:00,
2013-03-03 20:45:00,55.4,51.3,30.01,N/A,-737280,0.0,-999.0,86,0.00,,,0.00,Wunderground v.1.15,2013-03-04 04:45:00,
2013-03-03 20:50:00,55.4,51.3,30.01,N/A,-737280,0.0,-999.0,86,0.00,,,0.00,Wunderground v.1.15,2013-03-04 04:50:00,
2013-03-03 20:55:00,55.4,51.6,30.01,N/A,-737280,0.0,-999.0,87,0.00,,,0.00,Wunderground v.1.15,2013-03-04 04:55:00,
2013-03-03 21:00:00,55.4,51.6,30.01,N/A,-737280,0.0,-999.0,87,0.00,,,0.00,Wunderground v.1.15,2013-03-04 05:00:00,
2013-03-03 21:05:00,54.9,50.8,30.01,N/A,-737280,0.0,-999.0,86,0.00,,,0.00,Wunderground v.1.15,2013-03-04 05:05:00,
2013-03-03 21:10:00,54.9,50.8,30.01,N/A,-737280,0.0,-999.0,86,0.00,,,0.00,Wunderground v.1.15,2013-03-04 05:10:00,
2013-03-03 21:15:00,54.8,51.0,30.01,N/A,-737280,0.0,-999.0,87,0.00,,,0.00,Wunderground v.1.15,2013-03-04 05:15:00,
2013-03-03 21:20:00,54.8,51.0,30.01,N/A,-737280,0.0,-999.0,87,0.00,,,0.00,Wunderground v.1.15,2013-03-04 05:20:00,
2013-03-03 21:25:00,54.6,50.8,30.01,N/A,-737280,0.0,-999.0,87,0.00,,,0.00,Wunderground v.1.15,2013-03-04 05:25:00,
2013-03-03 21:30:00,54.6,50.8,30.01,N/A,-737280,0.0,-999.0,87,0.00,,,0.00,Wunderground v.1.15,2013-03-04 05:30:00,
2013-03-03 21:35:00,54.2,50.4,30.01,N/A,-737280,0.0,-999.0,87,0.00,,,0.00,Wunderground v.1.15,2013-03-04 05:35:00,
2013-03-03 21:40:00,54.2,50.4,30.01,N/A,-737280,0.0,-999.0,87,0.00,,,0.00,Wunderground v.1.15,2013-03-04 05:40:00,
2013-03-03 21:45:00,54.0,50.2,30.01,N/A,-737280,0.0,-999.0,87,0.00,,,0.00,Wunderground v.1.15,2013-03-04 05:45:00,
2013-03-03 21:50:00,54.0,50.2,30.01,N/A,-737280,0.0,-999.0,87,0.00,,,0.00,Wunderground v.1.15,2013-03-04 05:50:00,
2013-03-03 21:55:00,54.0,50.5,30.01,WNW,293,0.0,-999.0,88,0.00,,,0.00,Wunderground v.1.15,2013-03-04 05:55:00,
2013-03-03 22:00:00,54.0,50.5,30.01,WNW,293,0.0,-999.0,88,0.00,,,0.00,Wunderground v.1.15,2013-03-04 06:00:00,
2013-03-03 22:10:00,54.5,51.0,30.01,WNW,293,0.0,-999.0,88,0.00,,,0.00,Wunderground v.1.15,2013-03-04 06:10:00,
2013-03-03 22:15:00,55.1,51.6,30.01,WNW,293,1.0,-999.0,88,0.00,,,0.00,Wunderground v.1.15,2013-03-04 06:15:00,
2013-03-03 22:20:00,55.1,51.6,30.01,WNW,293,1.0,-999.0,88,0.00,,,0.00,Wunderground v.1.15,2013-03-04 06:20:00,
2013-03-03 22:50:00,55.6,52.1,30.01,SW,225,2.0,-999.0,88,0.00,,,0.00,Wunderground v.1.15,2013-03-04 06:50:00,
2013-03-03 22:55:00,55.8,52.3,30.01,SW,225,1.0,-999.0,88,0.00,,,0.00,Wunderground v.1.15,2013-03-04 06:55:00,
2013-03-03 23:00:00,55.8,52.3,30.01,SW,225,1.0,-999.0,88,0.00,,,0.00,Wunderground v.1.15,2013-03-04 07:00:00,
2013-03-03 23:10:00,55.9,52.4,30.01,SW,225,1.0,-999.0,88,0.00,,,0.00,Wunderground v.1.15,2013-03-04 07:10:00,
2013-03-03 23:15:00,55.9,52.4,30.01,SW,225,1.0,-999.0,88,0.00,,,0.00,Wunderground v.1.15,2013-03-04 07:15:00,
2013-03-03 23:35:00,56.2,52.4,30.01,South,180,2.0,-999.0,87,0.00,,,0.00,Wunderground v.1.15,2013-03-04 07:35:00,
2013-03-03 23:50:00,56.1,52.3,30.01,South,180,2.0,-999.0,87,0.00,,,0.00,Wunderground v.1.15,2013-03-04 07:50:00,
2013-03-03 23:55:00,56.0,52.2,30.01,South,180,2.0,-999.0,87,0.00,,,0.00,Wunderground v.1.15,2013-03-04 07:55:00,